Flag for Germany Weather past 2 weeks in Dresden, Saxony, Germany

Now
54 °F

Passing clouds.


Feels Like: 52 °F
Forecast: 55 / 75 °F
Wind: 6 mph from North

Location: Dresden-Klotzsche

Current Time: Sep 3, 2014 at 5:07:45 AM

Latest Report: Sep 3, 2014 at 4:20 AM


Visibility: N/A

Pressure: 30.21 "Hg

Humidity: 100%

Dew point: 54 °F

Location of DresdenLocation

Historic Weather in Dresden — Graph

°F

Dresden temperature yesterday

Maximum temperature yesterday: 57 °F (at 12:20 AM)
Minimum temperature yesterday: 54 °F (at 8:20 PM)
Average temperature yesterday: 56 °F

Past Weeks' High & Low Weather Summary

 TemperatureHumidityPressure
High73 °F (Aug 29, 12:50 PM)100% (Aug 27, 1:50 AM)30.21 "Hg (Aug 27, 1:50 AM)
Low46 °F (Aug 25, 2:50 AM)31% (Aug 28, 4:50 PM)29.71 "Hg (Aug 26, 9:50 AM)
Average58 °F74%29.98 "Hg
* Reported Aug 19 3:20 AM — Sep 3 3:50 AM, Dresden, Weather by CustomWeather, © 2014

Note: Actual official high and low records may vary slightly from our data, if they occured in-between our weather recording intervals... More about our weather records

Advertising

Dresden weather history for previous 24 hours

 ConditionsComfort  
Time TempWeatherWind HumidityBarometerVisibility
3:50 AM
Sep 3
54 °FPassing clouds.5 mph100%30.21 "HgN/A
3:20 AM52 °FLight rain. Passing clouds.6 mph100%30.21 "HgN/A
2:50 AM52 °FLight rain. Passing clouds.5 mph100%30.21 "HgN/A
2:20 AM54 °FPassing clouds.6 mph94%30.21 "HgN/A
1:50 AM54 °FPassing clouds.6 mph94%30.21 "HgN/A
1:20 AM54 °FPassing clouds.5 mph94%30.21 "HgN/A
12:50 AM54 °FPartly cloudy.6 mph94%30.21 "HgN/A
12:20 AM54 °FLow clouds.7 mph94%30.21 "HgN/A
11:50 PM
Sep 2
54 °FLow clouds.5 mph94%30.21 "HgN/A
11:20 PM54 °FPassing clouds.7 mph94%30.21 "HgN/A
10:50 PM54 °FPartly cloudy.9 mph94%30.21 "HgN/A
10:20 PM54 °FPartly cloudy.9 mph94%30.21 "HgN/A
9:50 PM54 °FPassing clouds.9 mph100%30.21 "Hg6 mi
9:20 PM54 °FPassing clouds.9 mph100%30.21 "Hg5 mi
8:50 PM54 °FPassing clouds.9 mph100%30.21 "Hg5 mi
8:20 PM54 °FDrizzle. Partly sunny.9 mph100%30.21 "Hg4 mi
7:50 PM55 °FDrizzle. Broken clouds.12 mph94%30.18 "Hg5 mi
7:20 PM55 °FPartly sunny.9 mph94%30.18 "HgN/A
6:50 PM55 °FPartly sunny.8 mph94%30.15 "HgN/A
6:20 PM55 °FPartly sunny.8 mph94%30.15 "HgN/A
5:50 PM57 °FDrizzle. Partly sunny.10 mph94%30.15 "Hg6 mi
5:20 PM57 °FBroken clouds.8 mph94%30.15 "HgN/A
4:50 PM57 °FPartly sunny.10 mph94%30.15 "HgN/A
4:20 PM57 °FPartly sunny.7 mph94%30.15 "HgN/A
3:50 PM57 °FBroken clouds.8 mph94%30.15 "HgN/A
3:20 PM57 °FPartly sunny.7 mph94%30.15 "HgN/A
2:50 PM57 °FBroken clouds.8 mph94%30.12 "HgN/A
2:20 PM57 °FLight rain. Partly sunny.8 mph94%30.15 "HgN/A
1:50 PM57 °FBroken clouds.6 mph94%30.12 "HgN/A
1:20 PM57 °FBroken clouds.8 mph94%30.12 "HgN/A
12:50 PM57 °FDrizzle. Partly sunny.7 mph94%30.12 "Hg6 mi
12:20 PM57 °FLight rain. Partly sunny.7 mph100%30.12 "Hg5 mi
11:50 AM57 °FLight rain. Fog.8 mph94%30.12 "Hg2 mi
11:20 AM57 °FDrizzle. Fog.6 mph94%30.12 "Hg2 mi
10:50 AM57 °FLight rain. Fog.7 mph94%30.09 "Hg2 mi
10:20 AM57 °FLight rain. Fog.7 mph94%30.09 "Hg2 mi
9:50 AM57 °FLight rain. Fog.5 mph94%30.09 "Hg2 mi
9:20 AM55 °FLight rain. Fog.5 mph100%30.09 "Hg2 mi
8:50 AM55 °FLight rain. Fog.3 mph100%30.09 "Hg1 mi
8:20 AM55 °FLight rain. Fog.3 mph100%30.09 "Hg1 mi
7:50 AM55 °FLight rain. Fog.3 mph94%30.09 "Hg1 mi
7:20 AM55 °FLight rain. Fog.3 mph94%30.07 "Hg1 mi
6:50 AM55 °FLight rain. Fog.3 mph94%30.07 "Hg1 mi
6:20 AM55 °FLight rain. Fog.3 mph94%30.07 "Hg1 mi
5:50 AM55 °FLight rain. Fog.3 mph94%30.07 "Hg2 mi
5:20 AM55 °FLight rain. Fog.3 mph100%30.07 "Hg2 mi
Weather by CustomWeather, © 2014

See weather overviewHow to use our weather pages